Location: Heilbronn
(49.1548°N, 9.2780°E)
Time: 21:33:57
(UTC+01:00)

Envisat - Visible Passes

Search period start: 23 February 2018 00:00
Search period end: 05 March 2018 00:00
Orbit: 764 x 766 km, 98.2° (Epoch: 23 February)

Date Brightness Start Highest point End Pass type
(mag) Time Alt. Az. Time Alt. Az. Time Alt. Az.
23 Feb 3.8 18:42:51 10° ESE 18:47:15 31° ENE 18:51:41 10° N visible
23 Feb 4.1 20:21:20 10° S 20:26:08 42° W 20:31:00 10° NNW visible
24 Feb 3.0 19:44:13 10° SSE 19:49:19 86° WSW 19:54:26 10° NNW visible
24 Feb 5.9 21:26:50 10° WSW 21:29:06 13° W 21:31:24 10° WNW visible
25 Feb 3.2 19:07:48 10° SE 19:12:40 48° ENE 19:17:33 10° N visible
25 Feb 5.0 20:47:41 10° SSW 20:51:56 26° W 20:56:11 10° NW visible
26 Feb 4.0 18:32:05 10° ESE 18:36:13 26° ENE 18:40:22 10° N visible
26 Feb 3.7 20:10:01 10° S 20:14:57 52° W 20:19:57 10° NNW visible
27 Feb 2.9 19:33:06 10° SSE 19:38:10 78° ENE 19:43:17 10° NNW visible
27 Feb 5.7 21:14:43 10° SW 21:17:49 16° W 21:20:56 10° NW visible
28 Feb 3.5 18:56:53 10° SE 19:01:35 40° ENE 19:06:19 10° N visible
28 Feb 4.7 20:36:11 10° SSW 20:40:42 32° W 20:45:15 10° NNW visible
01 Mar 3.4 19:58:44 10° S 20:03:47 65° WSW 20:08:51 10° NNW visible
02 Mar 3.0 19:22:03 10° SSE 19:27:04 64° ENE 19:32:06 10° N visible
02 Mar 5.4 21:02:52 10° SW 21:06:33 20° W 21:10:13 10° NW visible
03 Mar 3.7 18:46:02 10° SE 18:50:32 33° ENE 18:55:03 10° N visible
03 Mar 4.3 20:24:44 10° SSW 20:29:29 39° W 20:34:16 10° NNW visible
04 Mar 3.1 19:47:32 10° S 19:52:37 80° WSW 19:57:44 10° NNW visible
04 Mar 5.9 21:30:41 10° WSW 21:32:29 12° W 21:34:18 10° WNW visible
